1495728001.17,26810,15.31,73770.5,0.23,-0.37,-0.37,0,*41
1495728002.35,26811,15.31,73772.8,0.23,-0.33,-0.33,0,*40
1495728003.52,26812,15.31,73772.8,0.23,-0.33,-0.37,0,*47
1495728004.7,26813,15.38,73772.0,0.23,-0.73,-0.65,0,*45
1495728005.88,26814,15.31,73772.3,0.27,-0.45,-0.33,0,*40
1495728007.05,26815,15.31,73770.5,0.23,-0.33,-0.45,0,*45
1495728008.23,26816,15.31,73774.3,0.23,-0.45,-0.37,0,*42
1495728009.41,26817,15.31,73770.8,0.23,-0.37,-0.37,0,*46
1495728010.59,26818,15.31,73772.5,0.23,-0.45,-0.37,0,*4C
1495728011.77,26819,15.31,73772.3,0.23,-0.45,-0.49,0,*44
1495728012.94,26820,15.31,73770.0,0.23,-0.49,-0.49,0,*42
1495728014.13,26821,15.31,73774.0,0.27,-0.41,-0.41,0,*47
1495728015.3,26822,15.31,73770.8,0.23,-0.49,-0.45,0,*4C
1495728016.49,26823,15.31,73764.3,0.27,-0.41,-0.41,0,*45
1495728017.68,26824,15.31,73774.5,0.27,-0.29,-0.23,0,*48
1495728018.87,26825,15.31,73772.8,0.27,-0.19,-0.11,0,*4B
1495728020.05,26826,15.31,73764.0,0.23,-0.37,-0.37,0,*44
1495728021.22,26827,15.31,73770.0,0.27,-0.45,-0.45,0,*41
1495728022.4,26828,15.31,73772.5,0.27,-0.33,-0.33,0,*4E
1495728023.57,26829,15.31,73776.3,0.27,-0.29,-0.29,0,*4F
1495728024.75,26830,15.31,73772.0,0.27,-0.19,-0.19,0,*47
1495728025.97,26831,15.31,73776.5,0.29,-0.19,-0.23,0,*41
1495728027.22,26832,15.31,73776.5,0.29,-0.23,-0.23,0,*4B
1495728028.42,26833,15.31,73772.5,0.29,-0.33,-0.41,0,*4F
1495728029.62,26834,15.31,73776.0,0.29,-0.41,-0.33,0,*48
1495728030.84,26835,15.38,73776.0,0.29,-0.29,-0.23,0,*46
1495728032.03,26836,15.31,73772.0,0.29,-0.33,-0.29,0,*44
1495728033.24,26837,15.31,73772.0,0.29,-0.19,-0.19,0,*4E
1495728034.46,26838,15.31,73768.3,0.29,-0.29,-0.23,0,*4B
1495728035.66,26839,15.31,73770.8,0.29,-0.19,-0.11,0,*48
1495728036.83,26840,15.31,73782.0,0.31,-0.15,-0.07,0,*74
1495728038.0,26841,15.31,73774.5,0.31,-0.03,-0.03,0,*46
1495728039.17,26842,15.31,73768.8,0.31,-0.07,-0.15,0,*76
1495728040.33,26843,15.31,73772.3,0.31,-0.07,-0.03,0,*40
1495728041.5,26844,15.31,73776.0,0.31,-0.07,-0.19,0,*7C
1495728042.67,26845,15.31,73768.8,0.31,-0.03,-0.03,0,*42
1495728043.83,26846,15.31,73770.5,0.31,-0.03,-0.07,0,*45
1495728045.0,26847,15.31,73772.3,0.31,-0.15,-0.19,0,*4C
1495728046.23,26848,15.31,73774.8,0.33,-0.19,-0.27,0,*40
1495728047.41,26849,15.31,73772.3,0.35,-0.11,-0.15,0,*4E
1495728048.62,26850,15.31,73772.3,0.33,-0.41,-0.41,0,*44
1495728049.81,26851,15.31,73772.3,0.33,-0.57,-0.57,0,*45
1495728051.01,26852,15.31,73772.8,0.33,-0.37,-0.37,0,*46
1495728052.22,26853,15.31,73780.3,0.33,-0.41,-0.41,0,*47
1495728053.42,26854,15.31,73778.5,0.33,-0.41,-0.45,0,*44
1495728054.61,26855,15.31,73780.3,0.33,-0.57,-0.57,0,*41
1495728055.82,26856,15.31,73774.8,0.33,-0.37,-0.41,0,*43
1495728057.02,26857,15.31,73772.0,0.33,-0.37,-0.41,0,*42
1495728058.26,26858,15.31,73772.0,0.33,-0.27,-0.27,0,*4C
1495728059.48,26859,15.31,73782.0,0.33,-0.15,-0.27,0,*4C
1495728060.67,26860,15.31,73774.8,0.33,-0.15,-0.03,0,*70
1495728061.91,26861,15.31,73772.8,0.33,-0.27,-0.27,0,*46
1495728063.1,26862,15.31,73782.0,0.33,-0.03,-0.03,0,*45
1495728064.32,26863,15.31,73782.3,0.33,-0.29,-0.27,0,*4A
1495728065.52,26864,15.31,73758.0,0.33,-0.15,-0.15,0,*43
1495728066.72,26865,15.31,73756.5,0.33,-0.15,-0.15,0,*42
1495728067.96,26866,15.31,73758.3,0.33,-0.27,-0.27,0,*41
1495728069.16,26867,15.31,73756.8,0.33,-0.41,-0.29,0,*4E
1495728070.33,26868,15.31,73744.5,0.35,-0.53,-0.53,0,*49
1495728071.52,26869,15.31,73746.5,0.33,-0.65,-0.65,0,*4E
1495728072.72,26870,15.31,73776.5,0.33,-0.45,-0.45,0,*46
1495728073.91,26871,15.31,73778.5,0.33,-0.77,-0.81,0,*4E
1495728075.11,26872,15.31,73778.5,0.33,-0.77,-0.81,0,*4D
1495728076.28,26873,15.31,73776.8,0.31,-0.57,-0.57,0,*47
1495728077.48,26874,15.31,73776.0,0.33,-0.53,-0.53,0,*42
1495728078.67,26875,15.31,73768.5,0.33,-0.45,-0.53,0,*44
1495728079.87,26876,15.31,73774.5,0.33,-0.53,-0.57,0,*44
1495728081.06,26877,15.31,73780.5,0.33,-0.57,-0.57,0,*41
1495728082.25,26878,15.31,73780.3,0.33,-0.29,-0.29,0,*4E
1495728083.43,26879,15.31,73782.0,0.31,-0.37,-0.41,0,*4C
1495728084.61,26880,15.31,73782.5,0.31,-0.45,-0.45,0,*4B
1495728085.83,26881,15.31,73778.8,0.31,-0.27,-0.27,0,*4A
1495728087.0,26882,15.31,73776.5,0.31,-0.07,-0.15,0,*7A
1495728088.19,26883,15.31,73774.0,0.33,-0.07,-0.15,0,*79
1495728089.37,26884,15.31,73772.5,0.33,-0.07,0.01,0,*66
1495728090.57,26885,15.31,73776.5,0.33,-0.07,-0.15,0,*7F
1495728091.73,26886,15.31,73778.8,0.35,-0.03,-0.03,0,*49
1495728092.9,26887,15.31,73774.5,0.35,-0.07,-0.07,0,*48
1495728094.09,26888,15.31,73778.3,0.33,-0.29,-0.29,0,*41
1495728095.31,26889,15.31,73774.8,0.33,-0.27,-0.37,0,*41
1495728096.52,26890,15.31,73772.0,0.35,-0.23,-0.11,0,*4F
1495728097.7,26891,15.31,73772.5,0.33,-0.29,-0.29,0,*49
1495728098.9,26892,15.31,73772.8,0.35,-0.33,-0.23,0,*4D
1495728100.08,26893,15.31,73772.3,0.35,-0.37,-0.37,0,*4D
1495728101.27,26894,15.31,73774.0,0.33,-0.45,-0.45,0,*4C
1495728102.45,26895,15.31,73770.8,0.35,-0.53,-0.53,0,*4B
1495728103.65,26896,15.31,73768.3,0.33,-0.65,-0.77,0,*4D
1495728104.84,26897,15.31,73770.0,0.33,-0.53,-0.53,0,*4F
1495728106.03,26898,15.31,73766.5,0.33,-0.37,-0.29,0,*4F
1495728107.25,26899,15.31,73766.0,0.33,-0.27,-0.29,0,*4F
1495728108.45,26900,15.31,73766.5,0.33,-0.37,-0.37,0,*40
1495728109.64,26901,15.31,73770.8,0.33,-0.29,-0.29,0,*41
1495728110.82,26902,15.31,73768.3,0.35,-0.37,-0.37,0,*44
1495728112.0,26903,15.31,73768.3,0.35,-0.49,-0.41,0,*4D
1495728113.23,26904,15.31,73770.0,0.33,-0.93,-0.93,0,*44
1495728114.46,26905,15.31,73766.8,0.33,-0.89,-0.81,0,*4D
1495728115.65,26906,15.31,73768.8,0.33,-0.77,-0.69,0,*49
1495728116.85,26907,15.31,73768.0,0.33,-0.69,-0.81,0,*41
1495728118.02,26908,15.31,73766.5,0.31,-0.57,-0.65,0,*4B
1495728119.24,26909,15.31,73760.0,0.31,-0.89,-0.89,0,*4B
1495728120.46,26910,15.31,73760.3,0.31,-0.89,-1.01,0,*72
1495728121.66,26911,15.31,73768.3,0.29,-0.81,-0.81,0,*4B
1495728122.91,26912,15.31,73768.5,0.29,-0.97,-0.97,0,*48
1495728124.15,26913,15.31,73768.3,0.29,-1.33,-1.35,0,*4F
1495728125.39,26914,15.31,73764.5,0.29,-1.29,-1.35,0,*43
1495728126.61,26915,15.31,73764.3,0.29,-0.81,-0.85,0,*4B
1495728127.81,26916,15.31,73766.5,0.29,-0.57,-0.69,0,*41
1495728129.01,26917,15.31,73762.3,0.29,-0.73,-0.69,0,*46
1495728130.22,26918,15.31,73766.0,0.29,-0.73,-0.81,0,*4F
1495728131.4,26919,15.31,73762.3,0.29,-0.61,-0.61,0,*43
1495728132.6,26920,15.31,73764.3,0.29,-0.61,-0.69,0,*41
1495728133.77,26921,15.31,73770.5,0.27,-0.69,-0.61,0,*4E
1495728134.95,26922,15.31,73772.0,0.27,-0.69,-0.73,0,*4E
1495728136.15,26923,15.31,73766.0,0.27,-0.81,-0.93,0,*47
1495728137.37,26924,15.31,73762.8,0.27,-0.97,-0.97,0,*43
1495728138.56,26925,15.31,73768.3,0.27,-1.17,-1.17,0,*42
1495728139.78,26926,15.31,73766.3,0.27,-0.97,-0.97,0,*41
1495728140.96,26927,15.31,73766.0,0.23,-0.77,-0.77,0,*44
1495728142.14,26928,15.31,73760.0,0.23,-0.65,-0.61,0,*4F
1495728143.32,26929,15.31,73758.3,0.27,-0.45,-0.41,0,*4A
1495728144.49,26930,15.31,73760.8,0.23,-0.49,-0.49,0,*42
1495728145.68,26931,15.31,73764.5,0.27,-0.45,-0.41,0,*43
1495728146.86,26932,15.31,73762.3,0.27,-0.41,-0.33,0,*41
1495728148.02,26933,15.31,73758.8,0.27,-0.61,-0.61,0,*45
1495728149.2,26934,15.31,73758.0,0.27,-0.61,-0.49,0,*48
1495728150.37,26935,15.31,73760.8,0.27,-0.49,-0.45,0,*4F
1495728151.55,26936,15.31,73764.8,0.27,-0.41,-0.41,0,*40
1495728152.74,26937,15.31,73766.3,0.27,-0.45,-0.41,0,*45
1495728153.92,26938,15.31,73768.0,0.27,-0.41,-0.33,0,*4B
1495728155.1,26939,15.31,73766.5,0.23,-0.49,-0.41,0,*43
1495728156.28,26940,15.31,73764.8,0.27,-0.73,-0.73,0,*41
1495728157.46,26941,15.31,73764.5,0.27,-0.73,-0.81,0,*4D
1495728158.64,26942,15.31,73766.0,0.27,-0.49,-0.49,0,*43
1495728159.82,26943,15.31,73768.0,0.27,-0.33,-0.41,0,*47
1495728161.04,26944,15.31,73768.8,0.27,-0.27,-0.23,0,*41
1495728162.26,26945,15.31,73772.8,0.27,-0.23,-0.23,0,*44
1495728163.46,26946,15.31,73770.5,0.29,-0.49,-0.57,0,*46
1495728164.66,26947,15.31,73768.5,0.29,-0.57,-0.49,0,*47
1495728165.82,26948,15.31,73768.5,0.27,-0.61,-0.61,0,*49
1495728167.0,26949,15.31,73772.3,0.23,-0.53,-0.61,0,*4D
1495728168.17,26950,15.31,73770.3,0.27,-0.61,-0.57,0,*45
1495728169.34,26951,15.31,73772.5,0.27,-0.49,-0.49,0,*41
1495728170.52,26952,15.31,73774.0,0.27,-0.45,-0.41,0,*46
1495728171.72,26953,15.31,73774.3,0.27,-0.23,-0.29,0,*49
1495728172.92,26954,15.31,73774.0,0.29,-0.45,-0.49,0,*46
1495728174.12,26955,15.31,73770.3,0.29,-0.49,-0.49,0,*4B
1495728175.31,26956,15.31,73770.5,0.29,-0.33,-0.29,0,*43
1495728176.52,26957,15.31,73774.5,0.29,-0.41,-0.33,0,*4C
1495728177.72,26958,15.31,73772.5,0.29,-0.19,-0.19,0,*46
1495728178.91,26959,15.31,73764.8,0.29,-0.33,-0.29,0,*4C
1495728180.13,26960,15.31,73768.0,0.29,-0.29,-0.23,0,*47
1495728181.32,26961,15.31,73766.3,0.29,-0.33,-0.29,0,*47
1495728182.52,26962,15.31,73770.3,0.29,-0.45,-0.45,0,*4F
1495728183.72,26963,15.31,73768.0,0.29,-0.45,-0.49,0,*42
1495728184.93,26964,15.31,73768.3,0.29,-0.41,-0.33,0,*4C
1495728186.13,26965,15.31,73766.5,0.29,-0.45,-0.45,0,*48
1495728187.34,26966,15.31,73764.0,0.29,-0.41,-0.41,0,*4B
1495728188.53,26967,15.31,73764.8,0.31,-0.29,-0.27,0,*4D
1495728189.73,26968,15.31,73760.3,0.29,-0.45,-0.45,0,*45
1495728190.9,26969,15.31,73762.3,0.31,-0.45,-0.45,0,*4D
1495728192.08,26970,15.31,73762.3,0.31,-0.37,-0.37,0,*45
1495728193.26,26971,15.31,73756.5,0.31,-0.41,-0.41,0,*44
1495728194.44,26972,15.31,73762.0,0.31,-0.41,-0.41,0,*47
1495728195.64,26973,15.31,73758.5,0.31,-0.15,-0.27,0,*47
1495728196.81,26974,15.31,73756.8,0.31,-0.29,-0.29,0,*41
1495728197.98,26975,15.31,73758.0,0.31,-0.41,-0.45,0,*44
1495728199.18,26976,15.31,73760.3,0.31,-0.37,-0.27,0,*42
1495728200.38,26977,15.31,73762.5,0.29,-0.19,-0.07,0,*74
1495728201.54,26978,15.31,73760.8,0.31,-0.03,0.09,0,*6A
1495728202.73,26979,15.31,73762.5,0.29,-0.11,0.01,0,*59
1495728203.92,26980,15.31,73766.0,0.33,-0.15,-0.07,0,*7B
1495728205.12,26981,15.31,73766.8,0.33,-0.07,-0.15,0,*7A
1495728206.31,26982,15.31,73772.8,0.33,-0.19,-0.29,0,*49
1495728207.51,26983,15.31,73770.8,0.33,-0.45,-0.45,0,*4B
1495728208.7,26984,15.31,73768.8,0.33,-0.53,-0.57,0,*48
1495728209.88,26985,15.31,73766.0,0.31,-0.45,-0.45,0,*4F
1495728211.05,26986,15.31,73772.0,0.31,-0.45,-0.45,0,*4C
1495728212.22,26987,15.31,73778.5,0.31,-0.69,-0.77,0,*42
1495728213.4,26988,15.31,73774.5,0.31,-0.73,-0.81,0,*4F
1495728214.57,26989,15.31,73778.0,0.31,-0.69,-0.65,0,*4F
1495728215.74,26990,15.31,73774.8,0.31,-0.53,-0.53,0,*4B
1495728216.99,26991,15.31,73774.5,0.29,-0.85,-0.85,0,*43
1495728218.16,26992,15.31,73770.3,0.31,-0.45,-0.45,0,*49
1495728219.34,26993,15.31,73772.8,0.31,-0.41,-0.45,0,*4C
1495728220.54,26994,15.31,73772.5,0.29,-0.45,-0.45,0,*46
1495728221.71,26995,15.31,73772.8,0.31,-0.53,-0.53,0,*4E
1495728222.88,26996,15.31,73770.0,0.31,-0.45,-0.45,0,*4D
1495728224.07,26997,15.31,73770.5,0.29,-0.33,-0.29,0,*4E
1495728225.27,26998,15.31,73776.8,0.31,-0.29,-0.27,0,*4D
1495728226.46,26999,15.31,73778.8,0.29,-0.29,-0.29,0,*4B
1495728227.63,27000,15.31,73776.3,0.31,-0.37,-0.29,0,*45
1495728228.83,27001,15.31,73778.3,0.29,-0.45,-0.41,0,*46
1495728230.01,27002,15.31,73774.0,0.31,-0.41,-0.37,0,*49
1495728231.19,27003,15.31,73772.5,0.31,-0.37,-0.37,0,*49
1495728232.37,27004,15.31,73778.8,0.31,-0.37,-0.41,0,*4F
1495728233.57,27005,15.31,73776.0,0.29,-0.45,-0.45,0,*46
1495728234.74,27006,15.31,73776.0,0.31,-0.37,-0.37,0,*4C
1495728235.92,27007,15.31,73780.0,0.31,-0.37,-0.41,0,*4C
1495728237.09,27008,15.31,73782.5,0.31,-0.29,-0.29,0,*42
1495728238.27,27009,15.31,73776.5,0.31,-0.41,-0.37,0,*42
1495728239.44,27010,15.31,73778.5,0.31,-0.29,-0.29,0,*4B
1495728240.61,27011,15.31,73782.8,0.31,-0.19,-0.19,0,*4A
1495728241.84,27012,15.31,73782.8,0.31,-0.27,-0.27,0,*49
1495728243.01,27013,15.31,73782.0,0.31,-0.41,-0.37,0,*49
1495728244.19,27014,15.31,73780.5,0.31,-0.45,-0.45,0,*4F
1495728245.37,27015,15.31,73772.3,0.31,-0.41,-0.41,0,*4E
1495728246.54,27016,15.31,73778.3,0.31,-0.53,-0.45,0,*4A
1495728247.72,27017,15.31,73776.0,0.31,-0.37,-0.37,0,*4C
1495728248.89,27018,15.31,73776.3,0.31,-0.29,-0.29,0,*43
1495728250.07,27019,15.31,73774.0,0.31,-0.45,-0.41,0,*46
1495728251.27,27020,15.31,73772.3,0.31,-0.19,-0.27,0,*45
1495728252.44,27021,15.31,73778.8,0.31,-0.53,-0.45,0,*4E
1495728253.61,27022,15.31,73778.5,0.31,-0.53,-0.53,0,*4A
1495728254.78,27023,15.31,73778.5,0.31,-0.45,-0.45,0,*4B
1495728255.96,27024,15.31,73778.5,0.31,-0.45,-0.53,0,*4B
1495728257.13,27025,15.31,73776.8,0.31,-0.53,-0.53,0,*4D
1495728258.3,27026,15.31,73780.8,0.31,-0.53,-0.49,0,*45
1495728259.48,27027,15.31,73778.0,0.31,-0.53,-0.53,0,*4F
1495728260.65,27028,15.31,73780.3,0.31,-0.57,-0.65,0,*41
1495728261.82,27029,15.31,73776.8,0.31,-0.77,-0.77,0,*41
1495728262.99,27030,15.31,73776.8,0.31,-0.77,-0.81,0,*40
1495728264.17,27031,15.31,73776.0,0.31,-0.65,-0.65,0,*48
1495728265.34,27032,15.31,73772.5,0.31,-0.69,-0.69,0,*4B
1495728266.53,27033,15.31,73778.8,0.29,-0.69,-0.61,0,*4B
1495728267.71,27034,15.31,73776.8,0.31,-0.53,-0.53,0,*4D
1495728268.91,27035,15.31,73776.5,0.29,-0.69,-0.69,0,*45
1495728270.15,27036,15.31,73778.3,0.29,-0.93,-0.97,0,*42
1495728271.32,27037,15.31,73776.5,0.31,-0.65,-0.65,0,*4E
1495728272.49,27038,15.31,73776.8,0.31,-0.53,-0.53,0,*41
1495728273.68,27039,15.31,73776.3,0.29,-0.69,-0.61,0,*41
1495728274.86,27040,15.31,73778.5,0.31,-0.45,-0.45,0,*4E
1495728276.05,27041,15.31,73778.3,0.29,-0.57,-0.61,0,*43
1495728277.25,27042,15.31,73772.0,0.29,-0.69,-0.69,0,*45
1495728278.42,27043,15.31,73774.8,0.31,-0.57,-0.65,0,*4C
1495728279.62,27044,15.31,73778.5,0.29,-0.69,-0.61,0,*4B
1495728280.79,27045,15.31,73780.5,0.31,-0.65,-0.69,0,*47
1495728282.04,27046,15.31,73782.8,0.29,-0.97,-1.09,0,*77
1495728283.3,27047,15.31,73778.5,0.29,-0.97,-1.05,0,*7A
1495728284.54,27048,15.31,73776.5,0.29,-0.85,-0.85,0,*4F
1495728285.79,27049,15.31,73778.0,0.29,-0.85,-0.93,0,*49
1495728287.02,27050,15.31,73782.3,0.23,-1.09,-1.09,0,*4C
1495728288.24,27051,15.31,73782.5,0.27,-0.85,-0.85,0,*49
1495728289.41,27052,15.31,73786.8,0.27,-0.57,-0.61,0,*4F
1495728290.6,27053,15.31,73782.0,0.29,-0.61,-0.69,0,*4D
1495728291.8,27054,15.31,73780.5,0.29,-0.69,-0.69,0,*42
1495728293.0,27055,15.31,73782.8,0.29,-0.57,-0.57,0,*43
1495728294.17,27056,15.31,73780.5,0.23,-0.61,-0.49,0,*40
1495728295.35,27057,15.31,73780.3,0.27,-0.41,-0.45,0,*4B
1495728296.53,27058,15.31,73784.3,0.27,-0.41,-0.33,0,*45
1495728297.73,27059,15.31,73780.8,0.29,-0.45,-0.45,0,*4F
1495728298.92,27060,15.31,73780.8,0.29,-0.33,-0.29,0,*4E
1495728300.13,27061,15.31,73782.0,0.29,-0.45,-0.41,0,*40
1495728301.33,27062,15.31,73782.0,0.29,-0.45,-0.49,0,*4B
1495728302.53,27063,15.31,73782.5,0.29,-0.41,-0.45,0,*42
1495728303.74,27064,15.31,73780.5,0.29,-0.45,-0.41,0,*45
1495728304.95,27065,15.31,73782.3,0.29,-0.41,-0.41,0,*40
1495728306.15,27066,15.31,73776.5,0.29,-0.41,-0.33,0,*46
1495728307.36,27067,15.31,73778.5,0.29,-0.45,-0.49,0,*4E
1495728308.56,27068,15.31,73778.0,0.29,-0.45,-0.41,0,*49
1495728309.76,27069,15.31,73776.5,0.29,-0.45,-0.45,0,*4C
1495728310.97,27070,15.31,73780.0,0.29,-0.45,-0.41,0,*40
1495728312.15,27071,15.31,73778.0,0.31,-0.41,-0.41,0,*4C
1495728313.34,27072,15.31,73772.8,0.29,-0.57,-0.61,0,*43
1495728314.55,27073,15.31,73778.3,0.29,-0.41,-0.45,0,*43
1495728315.75,27074,15.31,73776.8,0.29,-0.45,-0.45,0,*40
1495728316.95,27075,15.31,73780.0,0.29,-0.57,-0.49,0,*4E
1495728318.15,27076,15.31,73778.8,0.29,-0.49,-0.49,0,*42
1495728319.36,27077,15.31,73778.5,0.29,-0.41,-0.41,0,*43
1495728320.55,27078,15.31,73776.5,0.31,-0.29,-0.27,0,*4B
1495728321.76,27079,15.31,73774.5,0.29,-0.41,-0.41,0,*4D
1495728322.94,27080,15.31,73776.0,0.31,-0.37,-0.37,0,*42
1495728324.13,27081,15.31,73778.3,0.29,-0.29,-0.29,0,*4A
1495728325.35,27082,15.31,73778.0,0.31,-0.27,-0.27,0,*40
1495728326.55,27083,15.31,73772.0,0.29,-0.45,-0.45,0,*48
1495728327.75,27084,15.31,73774.0,0.29,-0.49,-0.49,0,*4F
1495728328.92,27085,15.31,73782.0,0.31,-0.45,-0.45,0,*47
1495728330.11,27086,15.31,73776.3,0.29,-0.49,-0.45,0,*41
1495728331.31,27087,15.31,73776.5,0.33,-0.57,-0.53,0,*43
1495728332.5,27088,15.31,73780.0,0.29,-0.61,-0.57,0,*46
1495728333.68,27089,15.31,73776.8,0.31,-0.57,-0.57,0,*4B
1495728334.85,27090,15.31,73778.5,0.31,-0.45,-0.45,0,*43
1495728336.02,27091,15.31,73774.0,0.31,-0.45,-0.53,0,*45
1495728337.19,27092,15.31,73774.8,0.31,-0.69,-0.69,0,*41
1495728338.4,27093,15.31,73772.0,0.29,-0.81,-0.81,0,*49
1495728339.57,27094,15.31,73768.0,0.31,-0.45,-0.45,0,*47
1495728340.74,27095,15.31,73770.3,0.31,-0.29,-0.37,0,*49
1495728341.94,27096,15.31,73774.3,0.29,-0.41,-0.45,0,*48
1495728343.14,27097,15.31,73772.5,0.29,-0.29,-0.33,0,*46
1495728344.34,27098,15.31,73772.5,0.31,-0.19,-0.27,0,*46
1495728345.53,27099,15.31,73772.0,0.31,-0.27,-0.29,0,*44
1495728346.7,27100,15.31,73776.0,0.31,-0.29,-0.29,0,*4B
1495728347.91,27101,15.31,73780.0,0.29,-0.19,-0.11,0,*4B
1495728349.09,27102,15.31,73776.0,0.31,-0.41,-0.41,0,*49
1495728350.26,27103,15.31,73772.0,0.31,-0.45,-0.45,0,*48
1495728351.44,27104,15.31,73776.0,0.31,-0.37,-0.37,0,*4F
1495728352.62,27105,15.31,73776.5,0.31,-0.41,-0.37,0,*4F
1495728353.82,27106,15.31,73776.5,0.33,-0.19,-0.19,0,*4F
1495728355.01,27107,15.31,73772.3,0.33,-0.37,-0.29,0,*41
1495728356.21,27108,15.31,73772.8,0.33,-0.37,-0.37,0,*41
1495728357.43,27109,15.31,73772.5,0.35,-0.27,-0.27,0,*46
1495728358.66,27110,15.31,73772.5,0.33,-0.27,-0.19,0,*45
1495728359.88,27111,15.31,73770.5,0.35,-0.23,-0.23,0,*4F
1495728361.09,27112,15.31,73766.5,0.33,-0.41,-0.41,0,*4A
1495728362.28,27113,15.31,73766.8,0.33,-0.53,-0.53,0,*4B
1495728363.48,27114,15.31,73764.3,0.33,-0.41,-0.37,0,*4D
1495728364.68,27115,15.31,73766.3,0.33,-0.29,-0.37,0,*42
1495728365.88,27116,15.31,73768.8,0.33,-0.37,-0.37,0,*4E
1495728367.08,27117,15.31,73762.8,0.33,-0.41,-0.41,0,*4F
1495728368.29,27118,15.31,73760.8,0.33,-0.41,-0.37,0,*41
1495728369.48,27119,15.31,73762.8,0.33,-0.15,-0.19,0,*4D
1495728370.66,27120,15.31,73764.8,0.35,-0.37,-0.37,0,*4D
1495728371.86,27121,15.31,73758.3,0.33,-0.69,-0.77,0,*45
1495728373.11,27122,15.31,73754.3,0.33,-0.93,-1.01,0,*73
1495728374.29,27123,15.31,73762.5,0.35,-0.77,-0.73,0,*4A
1495728375.48,27124,15.31,73766.5,0.33,-0.53,-0.57,0,*4B
1495728376.68,27125,15.31,73760.8,0.33,-0.45,-0.45,0,*4E
1495728377.87,27126,15.31,73760.0,0.33,-0.45,-0.45,0,*4D
1495728379.07,27127,15.31,73766.3,0.33,-0.49,-0.49,0,*4C
1495728380.26,27128,15.31,73758.5,0.33,-0.77,-0.69,0,*4C
1495728381.46,27129,15.31,73756.8,0.33,-0.77,-0.77,0,*42
1495728382.68,27130,15.31,73760.5,0.31,-0.93,-1.01,0,*72
1495728383.88,27131,15.31,73764.5,0.31,-0.81,-0.93,0,*4A
1495728385.12,27132,15.31,73770.0,0.31,-1.05,-1.05,0,*4A
1495728386.37,27133,15.31,73764.3,0.29,-0.97,-1.05,0,*78
1495728387.57,27134,15.31,73766.3,0.31,-0.81,-0.89,0,*44
1495728388.75,27135,15.31,73772.5,0.31,-0.69,-0.69,0,*4D
1495728389.92,27136,15.31,73768.8,0.31,-0.77,-0.81,0,*47
1495728391.15,27137,15.31,73764.8,0.31,-1.05,-1.01,0,*4B
1495728392.4,27138,15.31,73760.0,0.29,-0.97,-0.97,0,*49
1495728393.6,27139,15.31,73766.3,0.29,-0.73,-0.81,0,*45
1495728394.79,27140,15.31,73766.3,0.29,-0.61,-0.61,0,*46
1495728395.99,27141,15.31,73762.8,0.29,-0.57,-0.61,0,*42
1495728397.18,27142,15.31,73766.0,0.29,-0.61,-0.61,0,*44
1495728398.37,27143,15.31,73772.3,0.29,-0.61,-0.69,0,*4D
1495728399.56,27144,15.31,73772.3,0.29,-0.61,-0.61,0,*42
1495728400.76,27145,15.31,73778.0,0.29,-0.49,-0.49,0,*43
1495728401.95,27146,15.31,73776.5,0.29,-0.61,-0.53,0,*41
1495728403.15,27147,15.31,73776.8,0.29,-0.69,-0.69,0,*41
1495728404.32,27148,15.31,73780.5,0.31,-0.45,-0.49,0,*4B
1495728405.5,27149,15.31,73768.3,0.31,-0.45,-0.45,0,*46
1495728406.67,27150,15.31,73774.3,0.31,-0.49,-0.49,0,*4E
1495728407.85,27151,15.31,73768.3,0.31,-0.37,-0.41,0,*4E
1495728409.02,27152,15.31,73768.5,0.31,-0.49,-0.49,0,*4C
1495728410.19,27153,15.31,73768.0,0.31,-0.29,-0.29,0,*4D
1495728411.39,27154,15.31,73766.0,0.29,-0.41,-0.45,0,*47
1495728412.57,27155,15.31,73768.3,0.31,-0.19,-0.15,0,*47
1495728413.8,27156,15.31,73772.0,0.29,-0.19,-0.23,0,*48
1495728414.97,27157,15.31,73770.3,0.31,-0.15,-0.15,0,*49
1495728416.16,27158,15.31,73764.0,0.33,-0.15,-0.03,0,*73
1495728417.37,27159,15.31,73764.3,0.33,-0.19,-0.15,0,*49
1495728418.55,27160,15.31,73762.0,0.33,-0.07,-0.03,0,*4B
1495728419.74,27161,15.31,73782.5,0.33,-0.07,-0.19,0,*71
1495728420.96,27162,15.31,73766.5,0.35,-0.23,-0.23,0,*4B
1495728422.18,27163,15.31,73754.3,0.33,-0.27,-0.29,0,*42
1495728423.36,27164,15.31,73762.0,0.35,-0.41,-0.45,0,*49
1495728424.56,27165,15.31,73768.0,0.33,-0.19,-0.15,0,*46
1495728425.75,27166,15.31,73762.3,0.35,-0.11,-0.11,0,*4F
1495728426.99,27167,15.31,73766.3,0.33,-0.27,-0.27,0,*48
1495728428.17,27168,15.31,73770.3,0.35,-0.11,-0.11,0,*41
1495728429.4,27169,15.31,73764.5,0.35,-0.27,-0.27,0,*40
1495728430.62,27170,15.31,73766.5,0.35,-0.23,-0.23,0,*48
1495728431.8,27171,15.31,73772.3,0.35,-0.11,-0.15,0,*4D
1495728432.98,27172,15.31,73766.8,0.35,-0.15,-0.11,0,*4E
1495728434.2,27173,15.31,73760.5,0.35,-0.23,-0.27,0,*4F
1495728435.38,27174,15.31,73762.8,0.35,-0.33,-0.33,0,*4C
1495728436.6,27175,15.31,73760.0,0.35,-0.23,-0.23,0,*4D
1495728437.82,27176,15.31,73762.0,0.35,-0.23,-0.27,0,*4A
1495728439.02,27177,15.31,73768.8,0.35,-0.11,-0.23,0,*4E
1495728440.24,27178,15.31,73770.5,0.33,-0.19,-0.27,0,*4B
1495728441.41,27179,15.31,73772.5,0.35,0.01,-0.11,0,*5D
1495728442.57,27180,15.31,73772.8,0.35,0.09,0.01,0,*4F
1495728443.74,27181,15.31,73774.8,0.35,-0.15,-0.15,0,*46
1495728444.93,27182,15.31,73774.3,0.35,-0.11,-0.11,0,*45
1495728446.15,27183,15.31,73772.8,0.37,-0.15,-0.23,0,*43
1495728447.32,27184,15.31,73774.8,0.39,-0.07,-0.11,0,*78
1495728448.52,27185,15.31,73772.8,0.37,-0.11,-0.11,0,*40
1495728449.67,27186,15.31,73772.8,0.39,0.01,0.01,0,*4D
1495728450.87,27187,15.31,73778.5,0.37,-0.11,-0.11,0,*42
1495728452.07,27188,15.31,73776.8,0.37,-0.11,-0.03,0,*7E
1495728453.22,27189,15.31,73776.3,0.39,0.01,-0.07,0,*69
1495728454.38,27190,15.31,73774.5,0.39,0.05,-0.07,0,*65
1495728455.54,27191,15.31,73778.0,0.39,0.05,0.05,0,*4B
1495728456.69,27192,15.31,73782.5,0.39,-0.07,0.01,0,*63
1495728457.89,27193,15.31,73780.5,0.39,-0.23,-0.19,0,*40
1495728459.06,27194,15.31,73778.5,0.39,-0.29,-0.33,0,*45
1495728460.31,27195,15.31,73776.3,0.37,-0.27,-0.27,0,*41
1495728461.52,27196,15.31,73776.5,0.39,-0.23,-0.23,0,*4C
1495728462.72,27197,15.31,73776.0,0.37,-0.33,-0.37,0,*47
1495728463.88,27198,15.31,73778.8,0.39,-0.07,0.05,0,*6D
1495728465.06,27199,15.31,73776.8,0.39,0.05,0.13,0,*74
1495728466.24,27200,15.31,73778.0,0.41,0.05,0.05,0,*4F
1495728467.39,27201,15.31,73778.0,0.39,0.05,0.01,0,*45
1495728468.59,27202,15.31,73776.5,0.39,-0.23,-0.19,0,*4B
1495728469.77,27203,15.31,73776.3,0.39,-0.19,-0.19,0,*43
1495728470.97,27204,15.31,73780.0,0.37,-0.11,-0.11,0,*4A
1495728472.15,27205,15.31,73780.0,0.37,0.01,-0.03,0,*64
1495728473.32,27206,15.31,73776.5,0.41,0.05,0.09,0,*45
1495728474.5,27207,15.31,73778.5,0.41,0.05,0.05,0,*48
1495728475.67,27208,15.31,73778.0,0.39,-0.29,-0.19,0,*4B
1495728476.83,27209,15.31,73772.5,0.39,0.01,-0.11,0,*55
1495728477.98,27210,15.31,73778.8,0.39,0.01,0.01,0,*41
1495728479.16,27211,15.31,73778.0,0.41,0.05,0.05,0,*4F
1495728480.34,27212,15.31,73776.0,0.41,0.05,0.05,0,*4C
1495728481.51,27213,15.31,73778.5,0.41,0.05,0.09,0,*41
1495728482.69,27214,15.31,73780.3,0.41,0.05,-0.03,0,*61
1495728483.89,27215,15.31,73778.8,0.41,-0.19,-0.19,0,*4B
1495728485.08,27216,15.31,73774.8,0.41,-0.15,-0.15,0,*48
1495728486.32,27217,15.31,73776.3,0.41,-0.27,-0.27,0,*49
1495728487.51,27218,15.31,73776.0,0.41,-0.07,-0.15,0,*75
1495728488.7,27219,15.31,73782.0,0.41,-0.03,-0.03,0,*47
1495728489.88,27220,15.31,73780.0,0.41,-0.07,-0.03,0,*49
1495728491.06,27221,15.31,73780.0,0.41,0.05,0.05,0,*4C
1495728492.25,27222,15.31,73776.3,0.41,-0.33,-0.41,0,*4A
1495728493.46,27223,15.31,73778.5,0.37,-0.41,-0.37,0,*4E
1495728494.64,27224,15.31,73778.5,0.39,-0.11,-0.11,0,*46
1495728495.82,27225,15.31,73776.8,0.41,-0.03,-0.07,0,*4C
1495728497.02,27226,15.31,73782.3,0.41,-0.19,-0.15,0,*47
1495728498.22,27227,15.31,73780.0,0.41,-0.19,-0.19,0,*4A
1495728499.41,27228,15.31,73778.0,0.41,-0.07,-0.15,0,*76
1495728500.59,27229,15.31,73776.8,0.41,-0.07,-0.07,0,*44
1495728501.79,27230,15.31,73782.8,0.41,-0.19,-0.19,0,*4C
1495728502.99,27231,15.31,73780.8,0.41,-0.15,-0.15,0,*4D